Weather History for KATY - January, 2012

Change the Weather History Date:

Wednesday, January 4, 2012

  Actual Average Record
Temperature  
Mean Temperature 33 °F 13 °F  
Max Temperature 47 °F 22 °F 47 °F (2012)
Min Temperature 18 °F 4 °F -28 °F (1912)
Degree Days  
Heating Degree Days 32 52  
Month to date heating degree days 163 208  
Since 1 July heating degree days 3085 3667  
Cooling Degree Days 0 0  
Month to date cooling degree days 0 0  
Year to date cooling degree days 0 0  
Moisture  
Dew Point 24 °F    
Average Humidity 69    
Maximum Humidity 92    
Minimum Humidity 45    
Precipitation  
Precipitation 0.00 in 0.02 in 1.22 in (1997)
Month to date precipitation T 0.07  
Year to date precipitation T 0.07  
Snow  
Snow 0.00 in - - ()
Month to date snowfall T  
Since 1 July snowfall 4.0  
Snow Depth 0.00 in    
Sea Level Pressure  
Sea Level Pressure 30.09 in    
Wind  
Wind Speed 9 mph (West)    
Max Wind Speed 22 mph    
Max Gust Speed 26 mph    
Visibility 10 miles    
Events      
T = Trace of Precipitation, MM = Missing Value Source: NWS Daily Summary

Daily Weather History Graph

Daily Weather History Graph

Search for Another Location

Airport or City:

Trip Planner

Search our weather history database for the weather conditions in past years. The results will help you decide how hot, cold, wet, or windy it might be!

Date:

Astronomy

Jan. 04, 2012 Rise Set
Actual Time 8:06 AM CST 5:00 PM CST
Civil Twilight 7:33 AM CST 5:33 PM CST
Nautical Twilight 6:56 AM CST 6:10 PM CST
Astronomical Twilight 6:20 AM CST 6:46 PM CST
Moon 1:25 PM CST 3:54 AM CST
Length of Visible Light 10h 00m
Length of Day
8h 54m
Waxing Gibbous, 81% of the Moon is Illuminated
Jan 4
Waxing Gibbous
Jan 9
Full
Jan 16
Last Quarter
Jan 23
New
Jan 30
First Quarter

Hourly Weather History & Observations

Time (CST) Temp. Windchill Dew Point Humidity Pressure Visibility Wind Dir Wind Speed Gust Speed Precip Events Conditions
12:53 AM 30.0 °F 18.7 °F 26.1 °F 85% 30.11 in 10.0 mi NW 16.1 mph - N/A   Clear
1:53 AM 28.0 °F 18.1 °F 24.1 °F 85% 30.13 in 10.0 mi NW 11.5 mph - N/A   Clear
2:53 AM 26.1 °F 16.2 °F 23.0 °F 88% 30.15 in 10.0 mi NW 10.4 mph - N/A   Clear
3:53 AM 25.0 °F 16.3 °F 21.9 °F 88% 30.16 in 10.0 mi NW 8.1 mph - N/A   Clear
4:53 AM 26.1 °F 17.6 °F 21.9 °F 84% 30.17 in 10.0 mi WNW 8.1 mph - N/A   Clear
5:53 AM 21.0 °F 12.4 °F 19.0 °F 92% 30.18 in 10.0 mi West 6.9 mph - N/A   Clear
6:53 AM 21.0 °F - 18.0 °F 88% 30.18 in 10.0 mi Calm Calm - N/A   Clear
7:53 AM 19.9 °F - 17.1 °F 89% 30.17 in 10.0 mi Calm Calm - N/A   Clear
8:53 AM 24.1 °F 18.2 °F 21.0 °F 88% 30.17 in 10.0 mi WSW 4.6 mph - N/A   Clear
9:53 AM 28.9 °F 21.9 °F 25.0 °F 85% 30.13 in 10.0 mi SW 6.9 mph - N/A   Clear
10:53 AM 37.0 °F 28.9 °F 28.9 °F 73% 30.09 in 10.0 mi SW 12.7 mph - N/A   Clear
11:53 AM 42.1 °F 33.9 °F 28.0 °F 58% 30.04 in 10.0 mi WSW 17.3 mph - N/A   Clear
12:53 PM 45.0 °F 37.4 °F 28.0 °F 52% 30.03 in 10.0 mi West 18.4 mph - N/A   Clear
1:53 PM 46.0 °F 38.8 °F 28.0 °F 50% 30.02 in 10.0 mi West 18.4 mph - N/A   Clear
2:53 PM 46.9 °F - 27.0 °F 46% 30.01 in 10.0 mi West 13.8 mph - N/A   Clear
3:53 PM 46.4 °F 41.5 °F 28.4 °F 50% 29.97 in 10.0 mi West 10.4 mph - N/A   Clear
4:53 PM 44.1 °F 39.5 °F 27.0 °F 51% 30.04 in 10.0 mi West 8.1 mph - N/A   Clear
5:53 PM 35.1 °F 28.6 °F 26.1 °F 70% 30.06 in 10.0 mi WSW 8.1 mph - N/A   Clear
6:53 PM 32.0 °F 26.4 °F 25.0 °F 75% 30.07 in 10.0 mi WSW 5.8 mph - N/A   Clear
7:53 PM 30.0 °F 25.2 °F 25.0 °F 82% 30.06 in 10.0 mi SSW 4.6 mph - N/A   Clear
8:53 PM 32.0 °F 25.6 °F 25.0 °F 75% 30.04 in 10.0 mi WSW 6.9 mph - N/A   Clear
9:53 PM 28.9 °F 25.2 °F 24.1 °F 82% 30.06 in 10.0 mi SSW 3.5 mph - N/A   Clear
10:53 PM 28.9 °F - 24.1 °F 82% 30.03 in 10.0 mi Calm Calm - N/A   Clear
11:53 PM 30.0 °F 26.5 °F 24.1 °F 79% 30.01 in 10.0 mi SW 3.5 mph - N/A   Clear